VK4VS Weather Reports


time (UTC)temp
F
wind
direction
speed
knots
gust
knots
rain 1hr
in
rain 24hr
in
rain mn
in
humidity
%
barometer
mb
20260509053004 63 120 2.6 7.0 0.00 0.00 0.00 46 1020.9
20260509050004 63 114 3.5 7.0 0.00 0.00 0.00 45 1020.9
20260509043004 63 126 2.6 7.8 0.00 0.00 0.00 46 1020.9
20260509040004 63 118 3.5 10.4 0.00 0.00 0.00 46 1021.0
20260509033004 62 85 2.6 7.0 0.00 0.00 0.00 47 1021.0
20260509030004 60 125 3.5 7.0 0.00 0.00 0.00 49 1021.1
20260509023004 60 128 4.3 8.7 0.00 0.00 0.00 49 1021.5
20260509020003 59 126 5.2 10.4 0.00 0.00 0.00 49 1021.9
20260509013004 58 127 6.1 13.0 0.00 0.00 0.00 51 1022.1
20260509010004 59 82 5.2 9.6 0.00 0.00 0.00 50 1022.2
20260509003004 58 118 7.0 12.2 0.00 0.00 0.00 52 1022.3
20260509000004 57 84 6.1 12.2 0.00 0.00 0.00 54 1022.2
20260508233004 56 105 6.1 10.4 0.00 0.00 0.00 56 1022.3
20260508230004 54 126 7.8 12.2 0.00 0.00 0.00 59 1022.0
20260508223004 53 121 7.0 12.2 0.00 0.00 0.00 61 1021.8
20260508220004 51 130 7.0 13.0 0.00 0.00 0.00 62 1021.4
20260508213004 49 123 6.1 10.4 0.00 0.00 0.00 66 1020.8
20260508210004 47 120 6.1 8.7 0.00 0.00 0.00 69 1020.5
20260508120054 46 185 2.6 7.8 0.00 0.00 0.00 68 1019.3
20260508113053 46 175 1.7 7.8 0.00 0.00 0.00 70 1019.2
20260508110053 47 154 1.7 3.5 0.00 0.00 0.00 67 1019.3
20260508103053 48 182 0.9 3.5 0.00 0.00 0.00 64 1019.2
20260508100053 48 117 0.9 3.5 0.00 0.00 0.00 63 1018.6
20260508093053 49 165 0.9 4.3 0.00 0.00 0.00 60 1018.5
20260508090053 50 221 0.9 6.1 0.00 0.00 0.00 59 1018.3
20260508083053 51 148 0.9 4.3 0.00 0.00 0.00 56 1017.9
20260508080053 53 210 0.9 6.1 0.00 0.00 0.00 54 1017.6
20260508073053 55 260 1.7 7.0 0.00 0.00 0.00 51 1017.2
20260508070053 57 210 2.6 9.6 0.00 0.00 0.00 46 1016.7
20260508063054 59 231 2.6 7.8 0.00 0.00 0.00 43 1016.5
20260508060054 60 179 2.6 8.7 0.00 0.00 0.00 43 1016.5